[[{"header":{"parameterUnit":"m.s-1","parameterCategory":1,"la1":30.2991,"la2":30.254,"lo1":-89.0895,"lo2":-89.0444,"dy":0.0017,"dx":0.0017,"nx":28,"ny":28,"refTime":"2024-02-26T03:00:00:Z","depth":0,"parameterNumber":2,"parameterNumberName":"U-component_of_WINDS"},"data":[0,0,0,0,0,0,0,0,0,0,0,0,0,0,0,0,0,0,0,0,0,0,0,0,0,0,0,0,0,0,0,0,0,0,0,0,0,0,0,0,0,0,0,0,0,0,0,0,0,0,0,0,0,0,0,0,0,0,-2.6235,-2.6235,0,-2.6308,-2.6309,-2.631,-2.6301,-2.6299,-2.6298,-2.6297,-2.637,-2.6373,-2.6376,0,0,0,0,0,0,0,0,0,0,0,0,0,-2.6083,-2.6086,-2.6234,-2.6235,-2.6236,-2.6308,-2.6309,-2.631,-2.6301,-2.6299,-2.6298,-2.6296,-2.6369,-2.6372,-2.6376,0,0,0,0,0,0,0,0,0,0,0,0,0,-2.6152,-2.6087,-2.6234,-2.624,-2.6242,-2.6308,-2.6309,-2.631,-2.6301,-2.6299,-2.6297,-2.6296,-2.6368,-2.6372,-2.6377,-2.6441,0,0,-2.6391,-2.6393,0,0,0,0,0,0,0,0,-2.6148,-2.6158,-2.6239,-2.624,-2.6242,-2.6293,-2.6283,-2.6354,-2.6301,-2.6278,-2.6297,-2.6295,-2.6346,-2.6352,-2.637,-2.6444,-2.6447,-2.6391,-2.6394,-2.6396,-2.6397,0,0,0,0,0,0,0,-2.6143,-2.6154,-2.6264,-2.624,-2.6242,-2.6239,-2.6246,-2.6296,-2.6321,-2.628,-2.628,-2.6289,-2.6346,-2.6365,-2.6371,-2.6448,-2.6391,-2.6395,-2.6398,-2.64,-2.6579,-2.6581,0,0,0,0,0,0,-2.6137,-2.615,-2.6261,-2.6266,-2.619,-2.6243,-2.6252,-2.6279,-2.6321,-2.6325,-2.629,-2.6288,-2.6358,-2.6366,-2.6374,-2.6451,-2.6396,-2.64,-2.6403,-2.6577,-2.658,-2.6582,0,0,0,0,0,0,-2.6134,-2.6147,-2.6258,-2.6208,-2.6222,-2.6247,-2.6278,-2.6281,-2.63,-2.6328,-2.6332,-2.6305,-2.6357,-2.6367,-2.6424,-2.6453,-2.6402,-2.6406,-2.6575,-2.6578,-2.6581,-2.6606,0,0,0,0,0,0,-2.613,-2.6146,-2.6171,-2.6209,-2.6225,-2.6308,-2.628,-2.6284,-2.6308,-2.6306,-2.6343,-2.6348,-2.6357,-2.6418,-2.6429,-2.6459,-2.641,-2.6572,-2.6576,-2.658,-2.6603,-2.661,-2.6615,0,0,0,0,0,-2.6125,-2.6175,-2.6173,-2.6186,-2.6257,-2.631,-2.6319,-2.6329,-2.6311,-2.6335,-2.6354,-2.6347,-2.6449,-2.6424,-2.6436,-2.6468,-2.6571,-2.6575,-2.658,-2.66,-2.6608,-2.6615,0,0,0,0,0,0,-2.6139,-2.618,-2.6178,-2.6242,-2.6273,-2.6308,-2.6339,-2.6337,-2.6373,-2.6369,-2.638,-2.6388,-2.6445,-2.6463,-2.6434,-2.6532,-2.6507,-2.6515,-2.6518,-2.6526,-2.6533,-2.6526,-2.6414,0,0,0,0,0,-2.615,-2.619,-2.6224,-2.6277,-2.6293,-2.6314,-2.6337,-2.6343,-2.6374,-2.6387,-2.6409,-2.644,-2.6479,-2.6504,-2.6542,-2.6606,-2.6614,-2.6634,-2.6641,-2.6646,-2.6651,-2.6686,-2.6695,-2.6597,-2.6597,-2.6597,0,0,-2.6172,-2.6199,-2.6224,-2.6281,-2.6305,-2.6346,-2.6324,-2.6369,-2.6399,-2.6393,-2.6448,-2.6466,-2.6501,-2.6562,-2.659,-2.6578,-2.6681,-2.6652,-2.6656,-2.6658,-2.6692,-2.6701,-2.6709,-2.66,-2.6599,-2.6599,0,0,-2.6232,-2.6258,-2.6305,-2.633,-2.6368,-2.6382,-2.6394,-2.643,-2.6442,-2.6498,-2.6495,-2.6531,-2.6598,-2.6623,-2.6644,-2.6716,-2.671,-2.6729,-2.6761,-2.6795,-2.6802,-2.6809,-2.6833,-2.6842,-2.6734,-2.6734,-2.6734,0,-2.6254,-2.6317,-2.6329,-2.6374,-2.6399,-2.6398,-2.6444,-2.6468,-2.6516,-2.6533,-2.6519,-2.6604,-2.6628,-2.6694,-2.6712,-2.673,-2.6742,-2.6723,-2.68,-2.6807,-2.6814,-2.6837,-2.6846,-2.6736,-2.6736,-2.6736,-2.6736,0,-2.6342,-2.6385,-2.6418,-2.6465,-2.6494,-2.654,-2.6558,-2.6586,-2.659,-2.6605,-2.6662,-2.669,-2.6733,-2.675,-2.6754,-2.6817,-2.6809,-2.6798,-2.6773,-2.6825,-2.6847,-2.6856,-2.6739,-2.6738,-2.6738,-2.6737,0,0,-2.641,-2.6466,-2.6477,-2.6499,-2.6541,-2.6574,-2.662,-2.6664,-2.6686,-2.672,-2.6758,-2.6816,-2.6807,-2.6831,-2.6838,-2.6868,-2.6922,-2.6853,-2.6854,-2.6863,-2.6992,-2.6998,-2.7008,-2.692,-2.6921,-2.6923,-2.6989,0,-2.6474,-2.6555,-2.6568,-2.664,-2.6679,-2.668,-2.672,-2.675,-2.6766,-2.6802,-2.6819,-2.686,-2.6845,-2.686,-2.689,-2.6909,-2.6947,-2.6905,-2.6953,-2.6955,-2.6942,-2.702,-2.7026,-2.7087,-2.6998,-2.6999,-2.7,0,-2.6558,-2.6595,-2.667,-2.6708,-2.6725,-2.676,-2.6801,-2.6836,-2.687,-2.688,-2.6908,-2.6912,-2.6959,-2.6934,-2.6998,-2.6969,-2.699,-2.7003,-2.7005,-2.7008,-2.6978,-2.7023,-2.7107,-2.7115,-2.7014,-2.7013,-2.7012,0,-2.6598,-2.6667,-2.6721,-2.6739,-2.6785,-2.681,-2.683,-2.6863,-2.6888,-2.6924,-2.694,-2.6981,-2.7003,-2.7034,-2.7049,-2.7029,-2.7112,-2.7088,-2.712,-2.7119,-2.7135,-2.7133,-2.7221,-2.7153,-2.7152,-2.7152,-2.7152,0,-2.6666,-2.6711,-2.6739,-2.6772,-2.6823,-2.6839,-2.6889,-2.6908,-2.6937,-2.6974,-2.6977,-2.7011,-2.7029,-2.7065,-2.7077,-2.7128,-2.7139,-2.7147,-2.7149,-2.7145,-2.7144,-2.7157,-2.7152,-2.7155,-2.7154,-2.7154,-2.7153,0,-2.6718,-2.6739,-2.6797,-2.6837,-2.6848,-2.6883,-2.6917,-2.6948,-2.6965,-2.7011,-2.7023,-2.7049,-2.7092,-2.711,-2.7163,-2.7171,-2.7229,-2.7229,-2.7217,-2.7217,-2.7247,-2.7243,-2.7344,-2.7358,-2.7283,-2.7284,-2.7284,0,-2.6758,-2.6794,-2.6837,-2.6862,-2.6883,-2.6924,-2.695,-2.6967,-2.6994,-2.7036,-2.7063,-2.7106,-2.7142,-2.7211,-2.7234,-2.7274,-2.7274,-2.7307,-2.728,-2.7275,-2.7272,-2.7269,-2.7272,-2.7311,-2.7312,-2.7312,-2.7313,0,-2.6827,-2.6836,-2.6875,-2.6917,-2.6948,-2.6982,-2.7015,-2.7035,-2.7057,-2.7088,-2.7132,-2.716,-2.7215,-2.7257,-2.73,-2.732,-2.7319,-2.7322,-2.7331,-2.7326,-2.7317,-2.732,-2.7228,-2.7318,-2.7318,-2.7317,-2.7317,-2.7317,-2.6874,-2.6905,-2.6941,-2.6983,-2.701,-2.7041,-2.7073,-2.7095,-2.7132,-2.7178,-2.7187,-2.7234,-2.7268,-2.7325,-2.7347,-2.7384,-2.7375,-2.7389,-2.7392,-2.7394,-2.7395,-2.7313,-2.7392,-2.7392,-2.7392,-2.7392,-2.7392,0,-2.6941,-2.6965,-2.7004,-2.705,-2.7084,-2.7083,-2.712,-2.7147,-2.7189,-2.7222,-2.7257,-2.7308,-2.735,-2.7378,-2.742,-2.7445,-2.7445,-2.7455,-2.7452,-2.7456,-2.7401,-2.7388,-2.7453,-2.7453,-2.7453,-2.7453,-2.7453,-2.7453,-2.698,-2.7032,-2.7046,-2.7112,-2.7135,-2.7182,-2.7203,-2.7232,-2.7257,-2.7315,-2.735,-2.7368,-2.7399,-2.7444,-2.7482,-2.7489,-2.7503,-2.7513,-2.7519,-2.7467,-2.746,-2.7454,-2.7442,-2.7517,-2.7517,-2.7571,-2.7571,-2.7571]},{"header":{"parameterUnit":"m.s-1","parameterCategory":1,"la1":30.2991,"la2":30.254,"lo1":-89.0895,"lo2":-89.0444,"dy":0.0017,"dx":0.0017,"nx":28,"ny":28,"refTime":"2024-02-26T03:00:00:Z","depth":0,"parameterNumber":3,"parameterNumberName":"V-component_of_WINDS"},"data":[0,0,0,0,0,0,0,0,0,0,0,0,0,0,0,0,0,0,0,0,0,0,0,0,0,0,0,0,0,0,0,0,0,0,0,0,0,0,0,0,0,0,0,0,0,0,0,0,0,0,0,0,0,0,0,0,0,0,3.0908,3.091,0,3.1028,3.1029,3.1031,3.114,3.1141,3.1143,3.1144,3.1265,3.1267,3.1269,0,0,0,0,0,0,0,0,0,0,0,0,0,3.0775,3.0776,3.0908,3.091,3.0911,3.1028,3.1029,3.1031,3.114,3.1141,3.1143,3.1145,3.1264,3.1267,3.1269,0,0,0,0,0,0,0,0,0,0,0,0,0,3.0857,3.0777,3.0908,3.098,3.0987,3.1027,3.103,3.1032,3.114,3.1142,3.1143,3.1145,3.1264,3.1267,3.127,3.1248,0,0,3.1279,3.128,0,0,0,0,0,0,0,0,3.0852,3.0862,3.0968,3.0975,3.0983,3.1071,3.1027,3.1104,3.1139,3.1082,3.1144,3.1146,3.1199,3.1207,3.1225,3.1254,3.1259,3.1279,3.1281,3.1282,3.1283,0,0,0,0,0,0,0,3.0846,3.0857,3.0956,3.0969,3.0979,3.1006,3.102,3.1042,3.1128,3.1087,3.1095,3.1108,3.1204,3.1222,3.1229,3.1261,3.1279,3.1281,3.1283,3.1284,3.1282,3.128,0,0,0,0,0,0,3.083,3.0852,3.0952,3.0959,3.0921,3.1007,3.1022,3.1041,3.1128,3.1143,3.1106,3.1112,3.1216,3.1225,3.1234,3.1218,3.1282,3.1285,3.1287,3.1283,3.1281,3.1279,0,0,0,0,0,0,3.0826,3.0838,3.0947,3.0908,3.0924,3.1007,3.1027,3.1042,3.1061,3.1142,3.1158,3.1109,3.1218,3.1229,3.1245,3.1223,3.1286,3.1289,3.1286,3.1283,3.128,3.1183,0,0,0,0,0,0,3.0822,3.0836,3.0828,3.0907,3.0926,3.0956,3.1026,3.1043,3.1066,3.1076,3.115,3.1164,3.1221,3.124,3.1248,3.1228,3.1291,3.1288,3.1284,3.1281,3.1188,3.1177,3.1167,0,0,0,0,0,3.0817,3.0795,3.0827,3.0839,3.0918,3.0954,3.0965,3.1031,3.1064,3.1058,3.111,3.1161,3.1224,3.124,3.125,3.1231,3.129,3.1285,3.1281,3.1193,3.1179,3.1167,0,0,0,0,0,0,3.0711,3.0807,3.0843,3.0846,3.0891,3.0972,3.0966,3.1014,3.105,3.1058,3.1138,3.1154,3.1161,3.1197,3.1214,3.1217,3.1264,3.1261,3.1193,3.1181,3.117,3.1163,3.1294,0,0,0,0,0,3.0688,3.0709,3.0791,3.0786,3.0807,3.0882,3.09,3.0948,3.0998,3.1017,3.1071,3.1117,3.1148,3.1166,3.1198,3.1193,3.1213,3.1186,3.1175,3.1166,3.1164,3.1167,3.1157,3.1265,3.1265,3.1266,0,0,3.064,3.0695,3.0703,3.0766,3.0807,3.0828,3.0898,3.0916,3.0933,3.102,3.1039,3.1079,3.1136,3.1143,3.1148,3.1173,3.1138,3.1161,3.1153,3.1156,3.1162,3.1152,3.1143,3.1263,3.1263,3.1264,0,0,3.0565,3.0608,3.061,3.0649,3.071,3.0761,3.0761,3.0836,3.0867,3.0887,3.0953,3.0974,3.1024,3.1063,3.1089,3.1031,3.1081,3.1039,3.0985,3.0987,3.0979,3.0972,3.0954,3.0946,3.1036,3.1035,3.1035,0,3.0499,3.0533,3.0604,3.062,3.0647,3.0727,3.073,3.0765,3.0833,3.085,3.0877,3.0944,3.0987,3.1005,3.0992,3.1009,3.1013,3.1032,3.0974,3.0968,3.0962,3.0946,3.0939,3.103,3.1031,3.1031,3.1032,0,3.045,3.0473,3.0467,3.0532,3.0558,3.0567,3.064,3.0658,3.0703,3.0751,3.0771,3.0827,3.0873,3.0881,3.0924,3.0905,3.092,3.0959,3.1008,3.0946,3.0932,3.0926,3.1023,3.1025,3.1026,3.1028,0,0,3.0312,3.0418,3.0414,3.0446,3.052,3.054,3.0553,3.0599,3.0614,3.0658,3.0673,3.0714,3.0752,3.0782,3.0831,3.0832,3.0787,3.0873,3.0875,3.0857,3.0773,3.0745,3.0737,3.0819,3.0818,3.0817,3.077,0,3.0252,3.0281,3.0346,3.0356,3.038,3.0457,3.0469,3.0516,3.0561,3.0588,3.0638,3.0667,3.0713,3.0733,3.0738,3.0791,3.0771,3.0795,3.0835,3.0836,3.0822,3.0729,3.0699,3.0651,3.0764,3.0763,3.0763,0,3.0185,3.0227,3.0239,3.0314,3.0326,3.0336,3.0385,3.0409,3.0465,3.0498,3.0532,3.0586,3.0606,3.0649,3.0678,3.0693,3.0713,3.0742,3.0742,3.075,3.0797,3.0738,3.0637,3.0631,3.0755,3.0755,3.0756,0,3.0087,3.0146,3.0162,3.0186,3.0273,3.0278,3.0315,3.0372,3.0397,3.0439,3.0457,3.05,3.0524,3.0557,3.0622,3.0647,3.0646,3.0693,3.0675,3.0674,3.0673,3.0673,3.0577,3.0681,3.0681,3.0681,3.0681,0,3.0015,3.002,3.0119,3.0129,3.0138,3.0212,3.0219,3.0263,3.0313,3.0334,3.0402,3.042,3.0503,3.0531,3.0582,3.06,3.061,3.0638,3.0652,3.0634,3.0631,3.065,3.0656,3.0679,3.068,3.068,3.068,0,2.9908,2.9974,2.9997,3.0078,3.0099,3.0102,3.0172,3.0185,3.0234,3.0259,3.027,3.0347,3.0384,3.0452,3.0506,3.0541,3.0549,3.0571,3.0531,3.054,3.0519,3.0521,3.0435,3.0429,3.0533,3.0532,3.0531,0,2.9859,2.9865,2.9947,2.9966,3.0001,3.003,3.0056,3.013,3.0154,3.0219,3.0224,3.0266,3.0304,3.0359,3.0421,3.0464,3.049,3.0456,3.0496,3.0479,3.0493,3.0493,3.0495,3.0448,3.0446,3.0445,3.0444,0,2.9766,2.9799,2.9834,2.9881,2.991,2.995,2.9994,3.0006,3.009,3.0114,3.0153,3.0182,3.0239,3.0281,3.0333,3.0371,3.0422,3.0431,3.043,3.0412,3.039,3.0405,3.051,3.0433,3.0434,3.0435,3.0435,3.0436,2.9689,2.9699,2.9759,2.9797,2.9838,2.9877,2.9895,2.9947,2.9981,3.0034,3.0075,3.0111,3.0169,3.0245,3.028,3.031,3.0334,3.0331,3.0331,3.0329,3.0324,3.0383,3.0319,3.032,3.032,3.032,3.0321,0,2.9602,2.9645,2.9678,2.9739,2.9768,2.9813,2.9865,2.9887,2.9918,2.9967,3.0004,3.0049,3.0091,3.0156,3.0203,3.0214,3.0239,3.0224,3.0226,3.0234,3.0298,3.0296,3.0204,3.0204,3.0204,3.0204,3.0204,3.0204,2.9561,2.9582,2.9622,2.9664,2.9707,2.9744,2.977,2.9808,2.9848,2.9896,2.9931,2.9973,3.003,3.0082,3.0122,3.014,3.0156,3.0134,3.016,3.0218,3.0229,3.024,3.0239,3.0136,3.0136,3.0094,3.0094,3.0094]}]]